Starlink 30700

operational
NORAD ID: 57953 Int'l Des: 2023-148 Owner: SPXS Country: US Constellation: starlink
LEOCIRCULAR

Starlink 30700について

説明を読み込み中...

リアルタイム位置

3D地球を読み込み中...

次回通過

高度履歴

Altitude vs Time

uPlot chart will show altitude changes over time

軌道要素

1 57953U 23148U 25351.55521784 -.00003077 00000-0 -91806-4 0 9997
2 57953 53.1612 35.7175 0001201 73.7606 286.3527 15.30195497125982
Epoch: Dec 17, 2025 • Age: 8 hours

現在のステータス

高度 480.9 km
速度 7.63 km/s
衛星直下点 53.01°N, 65.93°E
打ち上げ日 Sep 25, 2023
運用期間 2.2 years
タイプ internet

技術仕様

分類 Payload
質量 730.00 kg
乾燥質量 700.00 kg
総質量 730.00 kg
長さ 0.30 m
直径 4.10 m
スパン 29.00 m
形状 Box + pan
製造者 SPXS
バスタイプ Starlink V2M
フェーズステータス In Orbit
所有者/国 SPXS/US

大規模コンステレーション

Loading constellations...